sat.trackr.live / text

‹ back to catalog

STARLINK-33751

NORAD 63512 · 2025-071V

PAYLOAD ACTIVE UNKNOWN

§ Identity

Operator
Country
US
Launch date
2025-04-07
Launch site
AFWTR
Launch vehicle
Mass (kg)
RCS (m²)

Purposes: comms

External: N2YO · Heavens-Above · Gunter

§ Orbital elements

Epoch: 2026-05-24T06:47:52.002528Z

Period
94.01 min
Inclination
53.1599°
Eccentricity
0.0000631
Mean motion
15.31730001 rev/d
Perigee alt
470.2 km
Apogee alt
471.1 km
Semi-major
6,848.8 km
B*
3.7824e-4
RAAN
148.7580°
Arg perigee
71.1900°
Mean anomaly
288.9170°
Rev number
6,432

§ Raw data

STARLINK-337511 63512U 25071V   26144.28324077  .00011401  00000+0  37824-3 0  99952 63512  53.1599 148.7580 0000631  71.1900 288.9170 15.31730001 64323

JSON: /api/v1/satellites/63512 · /tle

For live sub-satellite position, see the globe view (requires WebGL).

§ Visibility from observer

Set your observer location to see the next 7 days of passes ≥ 10°. The values pass through the URL so the page stays shareable.

No JS? Fill the form by hand. The geolocation button needs JavaScript.